Location: Unspecified
(43.4354°N, 0.0000°E)
Time: 11:18:24
(UTC+00:00)

S-56A Canister/Altair - Pass Details

Date: 28 June 2019
Orbit: 632 x 2500 km, 38.9° (Epoch: 22 July)

Event Time Altitude Azimuth Distance (km) Brightness Sun altitude
Rises 16:23:20 0° 265° (W) 5,375 12.9 33.6°
Reaches altitude 10° 16:27:20 10° 263° (W) 4,096 12.7 32.9°
Maximum altitude 16:37:24 65° 185° (S) 1,394 9.3 31.1°
Drops below altitude 10° 16:43:56 10° 105° (ESE) 2,721 9.9 29.9°
Sets 16:46:07 0° 102° (ESE) 3,490 10.4 29.5°
